Year,Month,Day,Hour,Minute,Value (Times are PST for temperature in C)
2018,12,07,00,00,0.00
2018,12,07,00,01,0.00
2018,12,07,00,02,0.00
2018,12,07,00,03,0.00
2018,12,07,00,04,0.00
2018,12,07,00,05,0.00
2018,12,07,00,06,0.00
2018,12,07,00,07,0.00
2018,12,07,00,08,-0.10
2018,12,07,00,09,-0.10
2018,12,07,00,10,-0.10
2018,12,07,00,11,-0.10
2018,12,07,00,12,-0.10
2018,12,07,00,13,-0.10
2018,12,07,00,14,-0.10
2018,12,07,00,15,-0.10
2018,12,07,00,16,-0.10
2018,12,07,00,17,-0.10
2018,12,07,00,18,-0.10
2018,12,07,00,19,-0.10
2018,12,07,00,20,-0.10
2018,12,07,00,21,-0.10
2018,12,07,00,22,-0.10
2018,12,07,00,23,-0.10
2018,12,07,00,24,-0.10
2018,12,07,00,25,-0.10
2018,12,07,00,26,-0.10
2018,12,07,00,27,-0.10
2018,12,07,00,28,-0.10
2018,12,07,00,29,-0.10
2018,12,07,00,30,0.00
2018,12,07,00,31,0.00
2018,12,07,00,32,0.00
2018,12,07,00,33,0.00
2018,12,07,00,34,-0.10
2018,12,07,00,35,-0.10
2018,12,07,00,36,-0.10
2018,12,07,00,37,-0.10
2018,12,07,00,38,-0.10
2018,12,07,00,39,-0.10
2018,12,07,00,40,-0.20
2018,12,07,00,41,-0.20
2018,12,07,00,42,-0.20
2018,12,07,00,43,-0.20
2018,12,07,00,44,-0.20
2018,12,07,00,45,-0.20
2018,12,07,00,46,-0.20
2018,12,07,00,47,-0.10
2018,12,07,00,48,-0.10
2018,12,07,00,49,0.00
2018,12,07,00,50,0.00
2018,12,07,00,51,0.10
2018,12,07,00,52,0.10
2018,12,07,00,53,0.10
2018,12,07,00,54,0.10
2018,12,07,00,55,0.10
2018,12,07,00,56,0.10
2018,12,07,00,57,0.10
2018,12,07,00,58,0.10
2018,12,07,00,59,0.10
2018,12,07,01,00,0.10
2018,12,07,01,01,0.10
2018,12,07,01,02,0.00
2018,12,07,01,03,0.00
2018,12,07,01,04,0.10
2018,12,07,01,05,0.10
2018,12,07,01,06,0.10
2018,12,07,01,07,0.00
2018,12,07,01,08,0.00
2018,12,07,01,09,0.00
2018,12,07,01,10,-0.10
2018,12,07,01,11,-0.10
2018,12,07,01,12,-0.10
2018,12,07,01,13,-0.20
2018,12,07,01,14,-0.20
2018,12,07,01,15,-0.20
2018,12,07,01,16,-0.20
2018,12,07,01,17,-0.20
2018,12,07,01,18,-0.30
2018,12,07,01,19,-0.30
2018,12,07,01,20,-0.30
2018,12,07,01,21,-0.30
2018,12,07,01,22,-0.30
2018,12,07,01,23,-0.30
2018,12,07,01,24,-0.30
2018,12,07,01,25,-0.30
2018,12,07,01,26,-0.30
2018,12,07,01,27,-0.30
2018,12,07,01,28,-0.30
2018,12,07,01,29,-0.30
2018,12,07,01,30,-0.30
2018,12,07,01,31,-0.30
2018,12,07,01,32,-0.30
2018,12,07,01,33,-0.30
2018,12,07,01,34,-0.40
2018,12,07,01,35,-0.40
2018,12,07,01,36,-0.40
2018,12,07,01,37,-0.50
2018,12,07,01,38,-0.50
2018,12,07,01,39,-0.50
2018,12,07,01,40,-0.60
2018,12,07,01,41,-0.60
2018,12,07,01,42,-0.70
2018,12,07,01,43,-0.70
2018,12,07,01,44,-0.70
2018,12,07,01,45,-0.70
2018,12,07,01,46,-0.70
2018,12,07,01,47,-0.70
2018,12,07,01,48,-0.70
2018,12,07,01,49,-0.70
2018,12,07,01,50,-0.70
2018,12,07,01,51,-0.70
2018,12,07,01,52,-0.70
2018,12,07,01,53,-0.70
2018,12,07,01,54,-0.70
2018,12,07,01,55,-0.70
2018,12,07,01,56,-0.70
2018,12,07,01,57,-0.70
2018,12,07,01,58,-0.70
2018,12,07,01,59,-0.70
2018,12,07,02,00,-0.70
2018,12,07,02,01,-0.70
2018,12,07,02,02,-0.70
2018,12,07,02,03,-0.70
2018,12,07,02,04,-0.70
2018,12,07,02,05,-0.70
2018,12,07,02,06,-0.70
2018,12,07,02,07,-0.70
2018,12,07,02,08,-0.70
2018,12,07,02,09,-0.70
2018,12,07,02,10,-0.70
2018,12,07,02,11,-0.70
2018,12,07,02,12,-0.70
2018,12,07,02,13,-0.70
2018,12,07,02,14,-0.70
2018,12,07,02,15,-0.70
2018,12,07,02,16,-0.60
2018,12,07,02,17,-0.60
2018,12,07,02,18,-0.60
2018,12,07,02,19,-0.60
2018,12,07,02,20,-0.60
2018,12,07,02,21,-0.60
2018,12,07,02,22,-0.60
2018,12,07,02,23,-0.50
2018,12,07,02,24,-0.50
2018,12,07,02,25,-0.50
2018,12,07,02,26,-0.50
2018,12,07,02,27,-0.50
2018,12,07,02,28,-0.50
2018,12,07,02,29,-0.50
2018,12,07,02,30,-0.50
2018,12,07,02,31,-0.60
2018,12,07,02,32,-0.60
2018,12,07,02,33,-0.70
2018,12,07,02,34,-0.70
2018,12,07,02,35,-0.80
2018,12,07,02,36,-0.80
2018,12,07,02,37,-0.80
2018,12,07,02,38,-0.80
2018,12,07,02,39,-0.90
2018,12,07,02,40,-0.90
2018,12,07,02,41,-0.90
2018,12,07,02,42,-1.00
2018,12,07,02,43,-1.00
2018,12,07,02,44,-1.00
2018,12,07,02,45,-1.00
2018,12,07,02,46,-1.00
2018,12,07,02,47,-0.90
2018,12,07,02,48,-0.90
2018,12,07,02,49,-0.80
2018,12,07,02,50,-0.80
2018,12,07,02,51,-0.80
2018,12,07,02,52,-0.90
2018,12,07,02,53,-0.90
2018,12,07,02,54,-0.90
2018,12,07,02,55,-1.00
2018,12,07,02,56,-1.00
2018,12,07,02,57,-1.10
2018,12,07,02,58,-1.10
2018,12,07,02,59,-1.10
2018,12,07,03,00,-1.10
2018,12,07,03,01,-1.10
2018,12,07,03,02,-1.10
2018,12,07,03,03,-1.20
2018,12,07,03,04,-1.20
2018,12,07,03,05,-1.20
2018,12,07,03,06,-1.20
2018,12,07,03,07,-1.20
2018,12,07,03,08,-1.20
2018,12,07,03,09,-1.10
2018,12,07,03,10,-1.10
2018,12,07,03,11,-1.10
2018,12,07,03,12,-1.10
2018,12,07,03,13,-1.10
2018,12,07,03,14,-1.10
2018,12,07,03,15,-1.10
2018,12,07,03,16,-1.10
2018,12,07,03,17,-1.20
2018,12,07,03,18,-1.20
2018,12,07,03,19,-1.20
2018,12,07,03,20,-1.20
2018,12,07,03,21,-1.20
2018,12,07,03,22,-1.20
2018,12,07,03,23,-1.10
2018,12,07,03,24,-1.10
2018,12,07,03,25,-1.10
2018,12,07,03,26,-1.10
2018,12,07,03,27,-1.10
2018,12,07,03,28,-1.10
2018,12,07,03,29,-1.10
2018,12,07,03,30,-1.10
2018,12,07,03,31,-1.10
2018,12,07,03,32,-1.10
2018,12,07,03,33,-1.10
2018,12,07,03,34,-1.10
2018,12,07,03,35,-1.10
2018,12,07,03,36,-1.10
2018,12,07,03,37,-1.10
2018,12,07,03,38,-1.10
2018,12,07,03,39,-1.10
2018,12,07,03,40,-1.10
2018,12,07,03,41,-1.10
2018,12,07,03,42,-1.10
2018,12,07,03,43,-1.10
2018,12,07,03,44,-1.10
2018,12,07,03,45,-1.10
2018,12,07,03,46,-1.10
2018,12,07,03,47,-1.10
2018,12,07,03,48,-1.20
2018,12,07,03,49,-1.20
2018,12,07,03,50,-1.20
2018,12,07,03,51,-1.20
2018,12,07,03,52,-1.20
2018,12,07,03,53,-1.20
2018,12,07,03,54,-1.20
2018,12,07,03,55,-1.20
2018,12,07,03,56,-1.20
2018,12,07,03,57,-1.20
2018,12,07,03,58,-1.20
2018,12,07,03,59,-1.20
2018,12,07,04,00,-1.20
2018,12,07,04,01,-1.20
2018,12,07,04,02,-1.20
2018,12,07,04,03,-1.20
2018,12,07,04,04,-1.20
2018,12,07,04,05,-1.20
2018,12,07,04,06,-1.20
2018,12,07,04,07,-1.20
2018,12,07,04,08,-1.20
2018,12,07,04,09,-1.20
2018,12,07,04,10,-1.30
2018,12,07,04,11,-1.30
2018,12,07,04,12,-1.30
2018,12,07,04,13,-1.30
2018,12,07,04,14,-1.30
2018,12,07,04,15,-1.30
2018,12,07,04,16,-1.30
2018,12,07,04,17,-1.30
2018,12,07,04,18,-1.30
2018,12,07,04,19,-1.30
2018,12,07,04,20,-1.30
2018,12,07,04,21,-1.30
2018,12,07,04,22,-1.30
2018,12,07,04,23,-1.30
2018,12,07,04,24,-1.30
2018,12,07,04,25,-1.30
2018,12,07,04,26,-1.30
2018,12,07,04,27,-1.30
2018,12,07,04,28,-1.30
2018,12,07,04,29,-1.30
2018,12,07,04,30,-1.30
2018,12,07,04,31,-1.30
2018,12,07,04,32,-1.30
2018,12,07,04,33,-1.30
2018,12,07,04,34,-1.30
2018,12,07,04,35,-1.30
2018,12,07,04,36,-1.30
2018,12,07,04,37,-1.30
2018,12,07,04,38,-1.30
2018,12,07,04,39,-1.20
2018,12,07,04,40,-1.20
2018,12,07,04,41,-1.20
2018,12,07,04,42,-1.10
2018,12,07,04,43,-1.10
2018,12,07,04,44,-1.10
2018,12,07,04,45,-1.00
2018,12,07,04,46,-1.00
2018,12,07,04,47,-0.90
2018,12,07,04,48,-0.90
2018,12,07,04,49,-0.80
2018,12,07,04,50,-0.80
2018,12,07,04,51,-0.70
2018,12,07,04,52,-0.70
2018,12,07,04,53,-0.70
2018,12,07,04,54,-0.70
2018,12,07,04,55,-0.70
2018,12,07,04,56,-0.70
2018,12,07,04,57,-0.80
2018,12,07,04,58,-0.80
2018,12,07,04,59,-0.80
2018,12,07,05,00,-0.90
2018,12,07,05,01,-0.90
2018,12,07,05,02,-0.90
2018,12,07,05,03,-0.90
2018,12,07,05,04,-0.90
2018,12,07,05,05,-0.90
2018,12,07,05,06,-1.00
2018,12,07,05,07,-1.00
2018,12,07,05,08,-1.00
2018,12,07,05,09,-1.00
2018,12,07,05,10,-1.00
2018,12,07,05,11,-1.10
2018,12,07,05,12,-1.10
2018,12,07,05,13,-1.10
2018,12,07,05,14,-1.10
2018,12,07,05,15,-1.10
2018,12,07,05,16,-1.10
2018,12,07,05,17,-1.10
2018,12,07,05,18,-1.20
2018,12,07,05,19,-1.20
2018,12,07,05,20,-1.20
2018,12,07,05,21,-1.20
2018,12,07,05,22,-1.20
2018,12,07,05,23,-1.20
2018,12,07,05,24,-1.10
2018,12,07,05,25,-1.20
2018,12,07,05,26,-1.20
2018,12,07,05,27,-1.20
2018,12,07,05,28,-1.20
2018,12,07,05,29,-1.20
2018,12,07,05,30,-1.20
2018,12,07,05,31,-1.20
2018,12,07,05,32,-1.30
2018,12,07,05,33,-1.30
2018,12,07,05,34,-1.30
2018,12,07,05,35,-1.30
2018,12,07,05,36,-1.30
2018,12,07,05,37,-1.30
2018,12,07,05,38,-1.30
2018,12,07,05,39,-1.30
2018,12,07,05,40,-1.30
2018,12,07,05,41,-1.20
2018,12,07,05,42,-1.20
2018,12,07,05,43,-1.20
2018,12,07,05,44,-1.20
2018,12,07,05,45,-1.30
2018,12,07,05,46,-1.30
2018,12,07,05,47,-1.30
2018,12,07,05,48,-1.30
2018,12,07,05,49,-1.30
2018,12,07,05,50,-1.30
2018,12,07,05,51,-1.30
2018,12,07,05,52,-1.30
2018,12,07,05,53,-1.30
2018,12,07,05,54,-1.30
2018,12,07,05,55,-1.30
2018,12,07,05,56,-1.30
2018,12,07,05,57,-1.30
2018,12,07,05,58,-1.30
2018,12,07,05,59,-1.30
2018,12,07,06,00,-1.30
2018,12,07,06,01,-1.30
2018,12,07,06,02,-1.30
2018,12,07,06,03,-1.30
2018,12,07,06,04,-1.30
2018,12,07,06,05,-1.30
2018,12,07,06,06,-1.30
2018,12,07,06,07,-1.30
2018,12,07,06,08,-1.20
2018,12,07,06,09,-1.20
2018,12,07,06,10,-1.20
2018,12,07,06,11,-1.20
2018,12,07,06,12,-1.20
2018,12,07,06,13,-1.30
2018,12,07,06,14,-1.30
2018,12,07,06,15,-1.20
2018,12,07,06,16,-1.30
2018,12,07,06,17,-1.30
2018,12,07,06,18,-1.30
2018,12,07,06,19,-1.30
2018,12,07,06,20,-1.30
2018,12,07,06,21,-1.30
2018,12,07,06,22,-1.30
2018,12,07,06,23,-1.30
2018,12,07,06,24,-1.30
2018,12,07,06,25,-1.20
2018,12,07,06,26,-1.20
2018,12,07,06,27,-1.30
2018,12,07,06,28,-1.30
2018,12,07,06,29,-1.30
2018,12,07,06,30,-1.30
2018,12,07,06,31,-1.30
2018,12,07,06,32,-1.30
2018,12,07,06,33,-1.30
2018,12,07,06,34,-1.30
2018,12,07,06,35,-1.30
2018,12,07,06,36,-1.30
2018,12,07,06,37,-1.30
2018,12,07,06,38,-1.30
2018,12,07,06,39,-1.40
2018,12,07,06,40,-1.40
2018,12,07,06,41,-1.40
2018,12,07,06,42,-1.40
2018,12,07,06,43,-1.40
2018,12,07,06,44,-1.40
2018,12,07,06,45,-1.40
2018,12,07,06,46,-1.40
2018,12,07,06,47,-1.50
2018,12,07,06,48,-1.50
2018,12,07,06,49,-1.50
2018,12,07,06,50,-1.50
2018,12,07,06,51,-1.50
2018,12,07,06,52,-1.60
2018,12,07,06,53,-1.60
2018,12,07,06,54,-1.60
2018,12,07,06,55,-1.60
2018,12,07,06,56,-1.60
2018,12,07,06,57,-1.70
2018,12,07,06,58,-1.70
2018,12,07,06,59,-1.70
2018,12,07,07,00,-1.70
2018,12,07,07,01,-1.70
2018,12,07,07,02,-1.70
2018,12,07,07,03,-1.70
2018,12,07,07,04,-1.70
2018,12,07,07,05,-1.80
2018,12,07,07,06,-1.80
2018,12,07,07,07,-1.80
2018,12,07,07,08,-1.80
2018,12,07,07,09,-1.80
2018,12,07,07,10,-1.80
2018,12,07,07,11,-1.80
2018,12,07,07,12,-1.80
2018,12,07,07,13,-1.80
2018,12,07,07,14,-1.80
2018,12,07,07,15,-1.80
2018,12,07,07,16,-1.80
2018,12,07,07,17,-1.80
2018,12,07,07,18,-1.80
2018,12,07,07,19,-1.80
2018,12,07,07,20,-1.80
2018,12,07,07,21,-1.80
2018,12,07,07,22,-1.80
2018,12,07,07,23,-1.80
2018,12,07,07,24,-1.80
2018,12,07,07,25,-1.80
2018,12,07,07,26,-1.80
2018,12,07,07,27,-1.80
2018,12,07,07,28,-1.80
2018,12,07,07,29,-1.70
2018,12,07,07,30,-1.70
2018,12,07,07,31,-1.70
2018,12,07,07,32,-1.70
2018,12,07,07,33,-1.70
2018,12,07,07,34,-1.70
2018,12,07,07,35,-1.70
2018,12,07,07,36,-1.70
2018,12,07,07,37,-1.70
2018,12,07,07,38,-1.70
2018,12,07,07,39,-1.70
2018,12,07,07,40,-1.60
2018,12,07,07,41,-1.60
2018,12,07,07,42,-1.60
2018,12,07,07,43,-1.60
2018,12,07,07,44,-1.60
2018,12,07,07,45,-1.60
2018,12,07,07,46,-1.60
2018,12,07,07,47,-1.50
2018,12,07,07,48,-1.50
2018,12,07,07,49,-1.50
2018,12,07,07,50,-1.50
2018,12,07,07,51,-1.50
2018,12,07,07,52,-1.50
2018,12,07,07,53,-1.50
2018,12,07,07,54,-1.50
2018,12,07,07,55,-1.40
2018,12,07,07,56,-1.40
2018,12,07,07,57,-1.40
2018,12,07,07,58,-1.40
2018,12,07,07,59,-1.30
2018,12,07,08,00,-1.30
2018,12,07,08,01,-1.30
2018,12,07,08,02,-1.30
2018,12,07,08,03,-1.30
2018,12,07,08,04,-1.30
2018,12,07,08,05,-1.30
2018,12,07,08,06,-1.30
2018,12,07,08,07,-1.30
2018,12,07,08,08,-1.20
2018,12,07,08,09,-1.20
2018,12,07,08,10,-1.20
2018,12,07,08,11,-1.10
2018,12,07,08,12,-1.10
2018,12,07,08,13,-1.10
2018,12,07,08,14,-1.10
2018,12,07,08,15,-1.00
2018,12,07,08,16,-1.00
2018,12,07,08,17,-1.10
2018,12,07,08,18,-1.10
2018,12,07,08,19,-1.00
2018,12,07,08,20,-1.00
2018,12,07,08,21,-1.00
2018,12,07,08,22,-1.00
2018,12,07,08,23,-1.10
2018,12,07,08,24,-1.10
2018,12,07,08,25,-1.10
2018,12,07,08,26,-1.10
2018,12,07,08,27,-1.10
2018,12,07,08,28,-1.10
2018,12,07,08,29,-1.10
2018,12,07,08,30,-1.10
2018,12,07,08,31,-1.10
2018,12,07,08,32,-1.10
2018,12,07,08,33,-1.10
2018,12,07,08,34,-1.10
2018,12,07,08,35,-1.10
2018,12,07,08,36,-1.10
2018,12,07,08,37,-1.10
2018,12,07,08,38,-1.10
2018,12,07,08,39,-1.10
2018,12,07,08,40,-1.10
2018,12,07,08,41,-1.10
2018,12,07,08,42,-1.10
2018,12,07,08,43,-1.10
2018,12,07,08,44,-1.10
2018,12,07,08,45,-1.10
2018,12,07,08,46,-1.00
2018,12,07,08,47,-1.00
2018,12,07,08,48,-1.00
2018,12,07,08,49,-0.90
2018,12,07,08,50,-0.90
2018,12,07,08,51,-0.90
2018,12,07,08,52,-0.90
2018,12,07,08,53,-0.80
2018,12,07,08,54,-0.80
2018,12,07,08,55,-0.80
2018,12,07,08,56,-0.80
2018,12,07,08,57,-0.80
2018,12,07,08,58,-0.80
2018,12,07,08,59,-0.70
2018,12,07,09,00,-0.70
2018,12,07,09,01,-0.70
2018,12,07,09,02,-0.70
2018,12,07,09,03,-0.60
2018,12,07,09,04,-0.60
2018,12,07,09,05,-0.60
2018,12,07,09,06,-0.60
2018,12,07,09,07,-0.60
2018,12,07,09,08,-0.50
2018,12,07,09,09,-0.50
2018,12,07,09,10,-0.50
2018,12,07,09,11,-0.40
2018,12,07,09,12,-0.40
2018,12,07,09,13,-0.40
2018,12,07,09,14,-0.30
2018,12,07,09,15,-0.30
2018,12,07,09,16,-0.30
2018,12,07,09,17,-0.30
2018,12,07,09,18,-0.30
2018,12,07,09,19,-0.30
2018,12,07,09,20,-0.30
2018,12,07,09,21,-0.30
2018,12,07,09,22,-0.30
2018,12,07,09,23,-0.30
2018,12,07,09,24,-0.30
2018,12,07,09,25,-0.30
2018,12,07,09,26,-0.30
2018,12,07,09,27,-0.30
2018,12,07,09,28,-0.30
2018,12,07,09,29,-0.30
2018,12,07,09,30,-0.30
2018,12,07,09,31,-0.20
2018,12,07,09,32,-0.20
2018,12,07,09,33,-0.20
2018,12,07,09,34,-0.20
2018,12,07,09,35,-0.20
2018,12,07,09,36,-0.20
2018,12,07,09,37,-0.20
2018,12,07,09,38,-0.20
2018,12,07,09,39,-0.20
2018,12,07,09,40,-0.20
2018,12,07,09,41,-0.20
2018,12,07,09,42,-0.20
2018,12,07,09,43,-0.20
2018,12,07,09,44,-0.20
2018,12,07,09,45,-0.10
2018,12,07,09,46,-0.10
2018,12,07,09,47,-0.10
2018,12,07,09,48,-0.10
2018,12,07,09,49,-0.10
2018,12,07,09,50,-0.10
2018,12,07,09,51,-0.10
2018,12,07,09,52,-0.10
2018,12,07,09,53,-0.10
2018,12,07,09,54,-0.10
2018,12,07,09,55,-0.10
2018,12,07,09,56,-0.10
2018,12,07,09,57,-0.10
2018,12,07,09,58,-0.10
2018,12,07,09,59,-0.10
2018,12,07,10,00,-0.10
2018,12,07,10,01,-0.10
2018,12,07,10,02,-0.10
2018,12,07,10,03,-0.10
2018,12,07,10,04,-0.10
2018,12,07,10,05,-0.10
2018,12,07,10,06,-0.10
2018,12,07,10,07,-0.10
2018,12,07,10,08,-0.10
2018,12,07,10,09,-0.10
2018,12,07,10,10,0.00
2018,12,07,10,11,0.00
2018,12,07,10,12,0.10
2018,12,07,10,13,0.10
2018,12,07,10,14,0.20
2018,12,07,10,15,0.20
2018,12,07,10,16,0.20
2018,12,07,10,17,0.30
2018,12,07,10,18,0.30
2018,12,07,10,19,0.30
2018,12,07,10,20,0.40
2018,12,07,10,21,0.40
2018,12,07,10,22,0.50
2018,12,07,10,23,0.60
2018,12,07,10,24,0.60
2018,12,07,10,25,0.70
2018,12,07,10,26,0.80
2018,12,07,10,27,0.80
2018,12,07,10,28,0.90
2018,12,07,10,29,1.00
2018,12,07,10,30,1.00
2018,12,07,10,31,1.10
2018,12,07,10,32,1.20
2018,12,07,10,33,1.20
2018,12,07,10,34,1.20
2018,12,07,10,35,1.30
2018,12,07,10,36,1.30
2018,12,07,10,37,1.40
2018,12,07,10,38,1.40
2018,12,07,10,39,1.40
2018,12,07,10,40,1.50
2018,12,07,10,41,1.50
2018,12,07,10,42,1.60
2018,12,07,10,43,1.60
2018,12,07,10,44,1.60
2018,12,07,10,45,1.70
2018,12,07,10,46,1.70
2018,12,07,10,47,1.70
2018,12,07,10,48,1.70
2018,12,07,10,49,1.80
2018,12,07,10,50,1.80
2018,12,07,10,51,1.80
2018,12,07,10,52,1.90
2018,12,07,10,53,1.90
2018,12,07,10,54,1.90
2018,12,07,10,55,2.00
2018,12,07,10,56,2.00
2018,12,07,10,57,2.00
2018,12,07,10,58,2.10
2018,12,07,10,59,2.10
2018,12,07,11,00,2.10
2018,12,07,11,01,2.10
2018,12,07,11,02,2.10
2018,12,07,11,03,2.10
2018,12,07,11,04,2.10
2018,12,07,11,05,2.20
2018,12,07,11,06,2.20
2018,12,07,11,07,2.30
2018,12,07,11,08,2.30
2018,12,07,11,09,2.30
2018,12,07,11,10,2.30
2018,12,07,11,11,2.30
2018,12,07,11,12,2.40
2018,12,07,11,13,2.40
2018,12,07,11,14,2.40
2018,12,07,11,15,2.40
2018,12,07,11,16,2.40
2018,12,07,11,17,2.50
2018,12,07,11,18,2.50
2018,12,07,11,19,2.50
2018,12,07,11,20,2.50
2018,12,07,11,21,2.60
2018,12,07,11,22,2.60
2018,12,07,11,23,2.60
2018,12,07,11,24,2.60
2018,12,07,11,25,2.60
2018,12,07,11,26,2.60
2018,12,07,11,27,2.70
2018,12,07,11,28,2.70
2018,12,07,11,29,2.70
2018,12,07,11,30,2.70
2018,12,07,11,31,2.70
2018,12,07,11,32,2.70
2018,12,07,11,33,2.70
2018,12,07,11,34,2.80
2018,12,07,11,35,2.80
2018,12,07,11,36,2.80
2018,12,07,11,37,2.80
2018,12,07,11,38,2.80
2018,12,07,11,39,2.80
2018,12,07,11,40,2.80
2018,12,07,11,41,2.80
2018,12,07,11,42,2.80
2018,12,07,11,43,2.80
2018,12,07,11,44,2.80
2018,12,07,11,45,2.80
2018,12,07,11,46,2.80
2018,12,07,11,47,2.90
2018,12,07,11,48,2.90
2018,12,07,11,49,2.90
2018,12,07,11,50,2.90
2018,12,07,11,51,2.90
2018,12,07,11,52,3.00
2018,12,07,11,53,3.00
2018,12,07,11,54,3.00
2018,12,07,11,55,3.00
2018,12,07,11,56,3.10
2018,12,07,11,57,3.10
2018,12,07,11,58,3.10
2018,12,07,11,59,3.10
2018,12,07,12,00,3.10
2018,12,07,12,01,3.10
2018,12,07,12,02,3.20
2018,12,07,12,03,3.20
2018,12,07,12,04,3.20
2018,12,07,12,05,3.20
2018,12,07,12,06,3.30
2018,12,07,12,07,3.30
2018,12,07,12,08,3.30
2018,12,07,12,09,3.30
2018,12,07,12,10,3.30
2018,12,07,12,11,3.30
2018,12,07,12,12,3.30
2018,12,07,12,13,3.30
2018,12,07,12,14,3.30
2018,12,07,12,15,3.30
2018,12,07,12,16,3.30
2018,12,07,12,17,3.40
2018,12,07,12,18,3.40
2018,12,07,12,19,3.40
2018,12,07,12,20,3.40
2018,12,07,12,21,3.40
2018,12,07,12,22,3.50
2018,12,07,12,23,3.50
2018,12,07,12,24,3.60
2018,12,07,12,25,3.60
2018,12,07,12,26,3.60
2018,12,07,12,27,3.70
2018,12,07,12,28,3.70
2018,12,07,12,29,3.70
2018,12,07,12,30,3.80
2018,12,07,12,31,3.80
2018,12,07,12,32,3.80
2018,12,07,12,33,3.80
2018,12,07,12,34,3.80
2018,12,07,12,35,3.80
2018,12,07,12,36,3.90
2018,12,07,12,37,3.90
2018,12,07,12,38,3.90
2018,12,07,12,39,4.00
2018,12,07,12,40,4.00
2018,12,07,12,41,4.00
2018,12,07,12,42,4.00
2018,12,07,12,43,4.00
2018,12,07,12,44,4.00
2018,12,07,12,45,4.10
2018,12,07,12,46,4.10
2018,12,07,12,47,4.10
2018,12,07,12,48,4.10
2018,12,07,12,49,4.10
2018,12,07,12,50,4.20
2018,12,07,12,51,4.20
2018,12,07,12,52,4.20
2018,12,07,12,53,4.30
2018,12,07,12,54,4.30
2018,12,07,12,55,4.30
2018,12,07,12,56,4.30
2018,12,07,12,57,4.40
2018,12,07,12,58,4.40
2018,12,07,12,59,4.40
2018,12,07,13,00,4.40
2018,12,07,13,01,4.40
2018,12,07,13,02,4.40
2018,12,07,13,03,4.40
2018,12,07,13,04,4.40
2018,12,07,13,05,4.30
2018,12,07,13,06,4.30
2018,12,07,13,07,4.30
2018,12,07,13,08,4.20
2018,12,07,13,09,4.20
2018,12,07,13,10,4.20
2018,12,07,13,11,4.10
2018,12,07,13,12,4.10
2018,12,07,13,13,4.10
2018,12,07,13,14,4.10
2018,12,07,13,15,4.00
2018,12,07,13,16,4.00
2018,12,07,13,17,4.00
2018,12,07,13,18,3.90
2018,12,07,13,19,3.90
2018,12,07,13,20,3.90
2018,12,07,13,21,3.90
2018,12,07,13,22,3.90
2018,12,07,13,23,3.90
2018,12,07,13,24,3.90
2018,12,07,13,25,3.90
2018,12,07,13,26,4.00
2018,12,07,13,27,4.00
2018,12,07,13,28,4.00
2018,12,07,13,29,4.10
2018,12,07,13,30,4.10
2018,12,07,13,31,4.10
2018,12,07,13,32,4.10
2018,12,07,13,33,4.20
2018,12,07,13,34,4.20
2018,12,07,13,35,4.20
2018,12,07,13,36,4.20
2018,12,07,13,37,4.20
2018,12,07,13,38,4.20
2018,12,07,13,39,4.20
2018,12,07,13,40,4.20
2018,12,07,13,41,4.30
2018,12,07,13,42,4.30
2018,12,07,13,43,4.30
2018,12,07,13,44,4.30
2018,12,07,13,45,4.30
2018,12,07,13,46,4.30
2018,12,07,13,47,4.30
2018,12,07,13,48,4.30
2018,12,07,13,49,4.30
2018,12,07,13,50,4.30
2018,12,07,13,51,4.30
2018,12,07,13,52,4.30
2018,12,07,13,53,4.30
2018,12,07,13,54,4.40
2018,12,07,13,55,4.40
2018,12,07,13,56,4.40
2018,12,07,13,57,4.40
2018,12,07,13,58,4.40
2018,12,07,13,59,4.40
2018,12,07,14,00,4.40
2018,12,07,14,01,4.40
2018,12,07,14,02,4.40
2018,12,07,14,03,4.40
2018,12,07,14,04,4.40
2018,12,07,14,05,4.40
2018,12,07,14,06,4.40
2018,12,07,14,07,4.40
2018,12,07,14,08,4.40
2018,12,07,14,09,4.40
2018,12,07,14,10,4.40
2018,12,07,14,11,4.40
2018,12,07,14,12,4.40
2018,12,07,14,13,4.40
2018,12,07,14,14,4.40
2018,12,07,14,15,4.30
2018,12,07,14,16,4.30
2018,12,07,14,17,4.30
2018,12,07,14,18,4.30
2018,12,07,14,19,4.30
2018,12,07,14,20,4.30
2018,12,07,14,21,4.30
2018,12,07,14,22,4.30
2018,12,07,14,23,4.30
2018,12,07,14,24,4.30
2018,12,07,14,25,4.30
2018,12,07,14,26,4.30
2018,12,07,14,27,4.30
2018,12,07,14,28,4.30
2018,12,07,14,29,4.30
2018,12,07,14,30,4.20
2018,12,07,14,31,4.20
2018,12,07,14,32,4.20
2018,12,07,14,33,4.20
2018,12,07,14,34,4.20
2018,12,07,14,35,4.20
2018,12,07,14,36,4.20
2018,12,07,14,37,4.20
2018,12,07,14,38,4.20
2018,12,07,14,39,4.20
2018,12,07,14,40,4.20
2018,12,07,14,41,4.20
2018,12,07,14,42,4.10
2018,12,07,14,43,4.10
2018,12,07,14,44,4.10
2018,12,07,14,45,4.10
2018,12,07,14,46,4.10
2018,12,07,14,47,4.00
2018,12,07,14,48,4.00
2018,12,07,14,49,4.00
2018,12,07,14,50,4.00
2018,12,07,14,51,4.00
2018,12,07,14,52,4.00
2018,12,07,14,53,3.90
2018,12,07,14,54,3.90
2018,12,07,14,55,3.90
2018,12,07,14,56,3.90
2018,12,07,14,57,3.90
2018,12,07,14,58,3.90
2018,12,07,14,59,3.90
2018,12,07,15,00,3.90
2018,12,07,15,01,3.80
2018,12,07,15,02,3.80
2018,12,07,15,03,3.80
2018,12,07,15,04,3.80
2018,12,07,15,05,3.80
2018,12,07,15,06,3.80
2018,12,07,15,07,3.80
2018,12,07,15,08,3.70
2018,12,07,15,09,3.70
2018,12,07,15,10,3.70
2018,12,07,15,11,3.70
2018,12,07,15,12,3.60
2018,12,07,15,13,3.60
2018,12,07,15,14,3.60
2018,12,07,15,15,3.60
2018,12,07,15,16,3.60
2018,12,07,15,17,3.60
2018,12,07,15,18,3.60
2018,12,07,15,19,3.60
2018,12,07,15,20,3.60
2018,12,07,15,21,3.60
2018,12,07,15,22,3.60
2018,12,07,15,23,3.60
2018,12,07,15,24,3.60
2018,12,07,15,25,3.60
2018,12,07,15,26,3.60
2018,12,07,15,27,3.60
2018,12,07,15,28,3.60
2018,12,07,15,29,3.60
2018,12,07,15,30,3.60
2018,12,07,15,31,3.60
2018,12,07,15,32,3.60
2018,12,07,15,33,3.60
2018,12,07,15,34,3.60
2018,12,07,15,35,3.60
2018,12,07,15,36,3.60
2018,12,07,15,37,3.60
2018,12,07,15,38,3.60
2018,12,07,15,39,3.60
2018,12,07,15,40,3.60
2018,12,07,15,41,3.50
2018,12,07,15,42,3.50
2018,12,07,15,43,3.40
2018,12,07,15,44,3.40
2018,12,07,15,45,3.30
2018,12,07,15,46,3.30
2018,12,07,15,47,3.20
2018,12,07,15,48,3.20
2018,12,07,15,49,3.10
2018,12,07,15,50,3.00
2018,12,07,15,51,3.00
2018,12,07,15,52,2.90
2018,12,07,15,53,2.80
2018,12,07,15,54,2.80
2018,12,07,15,55,2.80
2018,12,07,15,56,2.70
2018,12,07,15,57,2.70
2018,12,07,15,58,2.60
2018,12,07,15,59,2.60
2018,12,07,16,00,2.60
2018,12,07,16,01,2.60
2018,12,07,16,02,2.60
2018,12,07,16,03,2.60
2018,12,07,16,04,2.50
2018,12,07,16,05,2.50
2018,12,07,16,06,2.50
2018,12,07,16,07,2.50
2018,12,07,16,08,2.50
2018,12,07,16,09,2.50
2018,12,07,16,10,2.50
2018,12,07,16,11,2.50
2018,12,07,16,12,2.40
2018,12,07,16,13,2.40
2018,12,07,16,14,2.40
2018,12,07,16,15,2.40
2018,12,07,16,16,2.40
2018,12,07,16,17,2.40
2018,12,07,16,18,2.40
2018,12,07,16,19,2.40
2018,12,07,16,20,2.40
2018,12,07,16,21,2.40
2018,12,07,16,22,2.40
2018,12,07,16,23,2.40
2018,12,07,16,24,2.40
2018,12,07,16,25,2.40
2018,12,07,16,26,2.50
2018,12,07,16,27,2.50
2018,12,07,16,28,2.50
2018,12,07,16,29,2.50
2018,12,07,16,30,2.50
2018,12,07,16,31,2.50
2018,12,07,16,32,2.50
2018,12,07,16,33,2.50
2018,12,07,16,34,2.60
2018,12,07,16,35,2.60
2018,12,07,16,36,2.60
2018,12,07,16,37,2.60
2018,12,07,16,38,2.70
2018,12,07,16,39,2.70
2018,12,07,16,40,2.70
2018,12,07,16,41,2.60
2018,12,07,16,42,2.60
2018,12,07,16,43,2.50
2018,12,07,16,44,2.40
2018,12,07,16,45,2.40
2018,12,07,16,46,2.40
2018,12,07,16,47,2.40
2018,12,07,16,48,2.30
2018,12,07,16,49,2.30
2018,12,07,16,50,2.30
2018,12,07,16,51,2.30
2018,12,07,16,52,2.30
2018,12,07,16,53,2.30
2018,12,07,16,54,2.30
2018,12,07,16,55,2.40
2018,12,07,16,56,2.40
2018,12,07,16,57,2.40
2018,12,07,16,58,2.40
2018,12,07,16,59,2.40
2018,12,07,17,00,2.40
2018,12,07,17,01,2.40
2018,12,07,17,02,2.40
2018,12,07,17,03,2.40
2018,12,07,17,04,2.40
2018,12,07,17,05,2.40
2018,12,07,17,06,2.40
2018,12,07,17,07,2.30
2018,12,07,17,08,2.30
2018,12,07,17,09,2.30
2018,12,07,17,10,2.30
2018,12,07,17,11,2.30
2018,12,07,17,12,2.20
2018,12,07,17,13,2.20
2018,12,07,17,14,2.10
2018,12,07,17,15,2.10
2018,12,07,17,16,2.00
2018,12,07,17,17,1.90
2018,12,07,17,18,1.90
2018,12,07,17,19,1.90
2018,12,07,17,20,1.90
2018,12,07,17,21,1.80
2018,12,07,17,22,1.80
2018,12,07,17,23,1.80
2018,12,07,17,24,1.90
2018,12,07,17,25,1.90
2018,12,07,17,26,1.90
2018,12,07,17,27,1.90
2018,12,07,17,28,1.90
2018,12,07,17,29,1.90
2018,12,07,17,30,1.90
2018,12,07,17,31,1.90
2018,12,07,17,32,1.90
2018,12,07,17,33,2.00
2018,12,07,17,34,2.00
2018,12,07,17,35,2.00
2018,12,07,17,36,2.00
2018,12,07,17,37,2.00
2018,12,07,17,38,2.00
2018,12,07,17,39,2.00
2018,12,07,17,40,2.00